Location: *
(51.5000°N, 0.1100°W)
Time: 20:45:31
(UTC+00:00)

Cosmos 1703 - Pass Details

Date: 25 May 2024
Orbit: 486 x 499 km, 82.5° (Epoch: 16 June)

Event Time Altitude Azimuth Distance (km) Brightness Sun altitude
Exits shadow 02:51:50 10° 211° (SSW) 1,684 5.1 -8.0°
Maximum altitude 02:55:23 45° 285° (WNW) 693 3.6 -7.7°
Drops below altitude 10° 02:59:00 10° 360° (N) 1,713 6.6 -7.3°
Sets 03:01:11 0° 6° (N) 2,598 7.7 -7.1°
